Weather History for Morgantown, WV

Change the Weather History Date:

Wednesday, January 29, 2014

  Actual Average Record
Temperature  
Mean Temperature 3 °F 32 °F  
Max Temperature 15 °F 40 °F 69 °F (1975)
Min Temperature -9 °F 24 °F -12 °F (1963)
Degree Days  
Heating Degree Days 62 33  
Month to date heating degree days 1086 979  
Since 1 July heating degree days 3040 2963  
Cooling Degree Days 0 0  
Month to date cooling degree days 0 0  
Year to date cooling degree days 0 0  
Moisture  
Dew Point -7 °F    
Average Humidity 62    
Maximum Humidity 83    
Minimum Humidity 40    
Precipitation  
Precipitation 0.00 in 0.09 in 1.44 in (1950)
Month to date precipitation 1.82 2.63  
Year to date precipitation 1.82 2.63  
Sea Level Pressure  
Sea Level Pressure 30.36 in    
Wind  
Wind Speed 5 mph (SSW)    
Max Wind Speed 14 mph    
Max Gust Speed 20 mph    
Visibility 10 miles    
Events      
T = Trace of Precipitation, MM = Missing Value Source: NWS Daily Summary

Daily Weather History Graph

Daily Weather History Graph

Search for Another Location

Airport:

Trip Planner

Search our weather history database for the weather conditions in past years. The results will help you decide how hot, cold, wet, or windy it might be!

Date:

Astronomy

Jan. 29, 2014 Rise Set
Actual Time 7:30 AM EST 5:36 PM EST
Civil Twilight 7:01 AM EST 6:04 PM EST
Nautical Twilight 6:29 AM EST 6:37 PM EST
Astronomical Twilight 5:57 AM EST 7:08 PM EST
Moon 6:05 AM EST (1/29) 4:33 PM EST (1/29)
Length of Visible Light 11h 03m
Length of Day
10h 06m
Waning Crescent, 2% of the Moon is Illuminated
Jan 29
Waning Crescent
Jan 30
New
Feb 6
First Quarter
Feb 14
Full
Feb 22
Last Quarter

Hourly Weather History & Observations

Time (EST) Temp. Windchill Dew Point Humidity Pressure Visibility Wind Dir Wind Speed Gust Speed Precip Events Conditions
12:53 AM -0.9 °F - -9.0 °F 69% 30.32 in 10.0 mi Calm Calm - N/A   Clear
1:53 AM -2.9 °F - -9.0 °F 75% 30.33 in 10.0 mi Calm Calm - N/A   Clear
2:53 AM -2.9 °F - -9.0 °F 75% 30.32 in 10.0 mi Calm Calm - N/A   Clear
3:53 AM -6.0 °F -14.7 °F -9.9 °F 83% 30.34 in 10.0 mi South 3.5 mph - N/A   Clear
4:53 AM -8.0 °F -19.2 °F -11.9 °F 83% 30.35 in 10.0 mi South 4.6 mph - N/A   Clear
5:53 AM -9.0 °F -20.4 °F -13.0 °F 83% 30.35 in 10.0 mi South 4.6 mph - N/A   Clear
6:53 AM -8.0 °F -16.9 °F -13.0 °F 79% 30.35 in 10.0 mi South 3.5 mph - N/A   Clear
7:53 AM -4.0 °F -12.4 °F -11.0 °F 72% 30.36 in 10.0 mi SSW 3.5 mph - N/A   Clear
8:53 AM -0.9 °F -11.0 °F -9.0 °F 69% 30.36 in 10.0 mi Variable 4.6 mph - N/A   Clear
9:53 AM 3.9 °F -10.4 °F -8.0 °F 58% 30.37 in 10.0 mi SW 9.2 mph - N/A   Clear
10:53 AM 7.0 °F -6.6 °F -7.1 °F 53% 30.37 in 10.0 mi SW 9.2 mph - N/A   Clear
11:53 AM 9.0 °F -0.9 °F -6.0 °F 51% 30.37 in 10.0 mi Variable 5.8 mph - N/A   Clear
12:53 PM 10.9 °F -2.6 °F -6.0 °F 47% 30.34 in 10.0 mi SW 10.4 mph - N/A   Clear
1:53 PM 12.0 °F -0.4 °F -5.1 °F 46% 30.33 in 10.0 mi SW 9.2 mph 18.4 mph N/A   Clear
2:53 PM 14.0 °F 2.0 °F -4.0 °F 45% 30.32 in 10.0 mi SW 9.2 mph - N/A   Clear
3:53 PM 15.1 °F 4.2 °F -5.1 °F 41% 30.32 in 10.0 mi SSW 8.1 mph 18.4 mph N/A   Clear
4:53 PM 15.1 °F 5.2 °F -4.0 °F 43% 30.35 in 10.0 mi SW 6.9 mph 16.1 mph N/A   Clear
5:53 PM 14.0 °F 3.9 °F -5.1 °F 43% 30.36 in 10.0 mi SSW 6.9 mph - N/A   Clear
6:53 PM 12.9 °F 3.8 °F -5.1 °F 45% 30.38 in 10.0 mi SSW 5.8 mph - N/A   Clear
7:53 PM 10.0 °F 3.6 °F -5.1 °F 51% 30.39 in 10.0 mi South 3.5 mph - N/A   Clear
8:53 PM 8.1 °F 1.4 °F -5.1 °F 55% 30.40 in 10.0 mi South 3.5 mph - N/A   Clear
9:53 PM 9.0 °F - -5.1 °F 53% 30.41 in 10.0 mi Calm Calm - N/A   Clear
10:53 PM 8.1 °F 1.4 °F -5.1 °F 55% 30.41 in 10.0 mi South 3.5 mph - N/A   Clear
11:53 PM 7.0 °F 0.1 °F -5.1 °F 58% 30.41 in 10.0 mi South 3.5 mph - N/A   Clear